Prescott, AZ

12:42 PM MST on November 20, 2019 (GMT -0700)
Love

Weather History for KPRC - June, 2019

Change the Weather History Date:

Wednesday, June 5, 2019

  Actual Average Record
Temperature  
Mean Temperature 68 °F 68 °F  
Max Temperature 87 °F 83 °F 98 °F (2016)
Min Temperature 50 °F 52 °F 40 °F (1999)
Degree Days  
Heating Degree Days 0    
Month to date heating degree days 2  
Since 1 July heating degree days 4330  
Cooling Degree Days 4    
Month to date cooling degree days 7  
Year to date cooling degree days 8  
Growing Degree Days 18 (Base 50)    
Moisture  
Dew Point 37 °F    
Average Humidity 33    
Maximum Humidity 71    
Minimum Humidity 13    
Precipitation  
Precipitation 0.00 in 0.00 in 0.04 in (1972)
Month to date precipitation 0.11 0.04  
Year to date precipitation 6.79 4.58  
Sea Level Pressure  
Sea Level Pressure 29.86 in    
Wind  
Wind Speed 6 mph ()    
Max Wind Speed 21 mph    
Max Gust Speed 32 mph    
Visibility 10.0 miles    
Events      
T = Trace of Precipitation, MM = Missing Value Source: Averaged Metar Reports

Daily Weather History Graph

Daily Weather History Graph

Search for Another Location

Airport or City:

Astronomy

Jun. 05, 2019 Rise Set
Actual Time 5:16 AM MST 7:39 PM MST
Civil Twilight 4:47 AM MST 8:08 PM MST
Nautical Twilight 4:11 AM MST 8:44 PM MST
Astronomical Twilight 3:32 AM MST 9:24 PM MST
Moon 7:25 AM MST (6/5) 10:10 PM MST (6/5)
Length of Visible Light 15h 21m
Length of Day
14h 22m
Waxing Crescent, 7% of the Moon is Illuminated
Jun 5
Waxing Crescent
Jun 9
First Quarter
Jun 17
Full
Jun 25
Last Quarter
Jul 2
New

Hourly Weather History & Observations

Time (MST) Temp. Dew Point Humidity Pressure Visibility Wind Dir Wind Speed Gust Speed Precip Events Conditions
12:53 AM 55.0 °F 43.0 °F 64% 29.85 in 10.0 mi SSW 9.2 mph - N/A   Clear
1:53 AM 54.0 °F 43.0 °F 66% 29.86 in 10.0 mi SSW 8.1 mph - N/A   Clear
2:53 AM 54.0 °F 41.0 °F 62% 29.85 in 10.0 mi South 9.2 mph - N/A   Clear
3:53 AM 55.9 °F 39.0 °F 53% 29.88 in 10.0 mi South 10.4 mph - N/A   Clear
4:53 AM 52.0 °F 41.0 °F 66% 29.91 in 10.0 mi East 3.5 mph - N/A   Clear
5:53 AM 52.0 °F 42.1 °F 69% 29.91 in 10.0 mi Calm Calm - N/A   Clear
6:53 AM 59.0 °F 44.1 °F 58% 29.91 in 10.0 mi Calm Calm - N/A   Clear
7:53 AM 66.9 °F 44.1 °F 44% 29.91 in 10.0 mi Calm Calm - N/A   Clear
8:53 AM 72.0 °F 42.1 °F 34% 29.91 in 10.0 mi Variable 4.6 mph - N/A   Clear
9:53 AM 77.0 °F 39.9 °F 26% 29.89 in 10.0 mi Calm Calm - N/A   Clear
10:53 AM 80.1 °F 37.9 °F 22% 29.89 in 10.0 mi Calm Calm - N/A   Scattered Clouds
11:53 AM 82.9 °F 28.9 °F 14% 29.88 in 10.0 mi North 9.2 mph 16.1 mph N/A   Clear
12:53 PM 84.9 °F 28.9 °F 13% 29.86 in 10.0 mi NW 8.1 mph - N/A   Partly Cloudy
1:53 PM 84.0 °F 33.1 °F 16% 29.86 in 10.0 mi WSW 12.7 mph 20.7 mph N/A   Partly Cloudy
2:53 PM 86.0 °F 33.1 °F 15% 29.84 in 10.0 mi West 13.8 mph 20.7 mph N/A   Clear
3:53 PM 86.0 °F 34.0 °F 16% 29.82 in 10.0 mi WNW 17.3 mph - N/A   Clear
4:53 PM 84.9 °F 33.1 °F 16% 29.83 in 10.0 mi West 13.8 mph - N/A   Clear
5:53 PM 82.9 °F 33.1 °F 17% 29.82 in 10.0 mi West 11.5 mph - N/A   Clear
6:53 PM 80.1 °F 33.1 °F 18% 29.82 in 10.0 mi WSW 13.8 mph - N/A   Clear
7:53 PM 75.0 °F 33.1 °F 22% 29.82 in 10.0 mi WSW 6.9 mph - N/A   Clear
8:53 PM 73.0 °F 33.1 °F 23% 29.82 in 10.0 mi Calm Calm - N/A   Clear
9:53 PM 72.0 °F 33.1 °F 24% 29.83 in 10.0 mi WSW 3.5 mph - N/A   Clear
10:53 PM 73.0 °F 32.0 °F 22% 29.82 in 10.0 mi WSW 10.4 mph - N/A   Clear
11:53 PM 71.1 °F 32.0 °F 24% 29.82 in 10.0 mi SW 6.9 mph - N/A   Clear